Regional Weather Roundup
Issued by NWS Cleveland, OH

Home | Current Version | Previous Version | Graphics & Text | Print | Product List | Glossary On
Versions: 1 2 3 4 5 6 7 8 9 10 11 12 13 14 15 16 17 18 19 20 21 22 23 24 25 26 27 28 29 30 31 32 33 34 35 36 37 38 39 40 41 42 43 44 45 46 47 48 49 50
000
ASUS41 KCLE 170202
RWRCLE
OHIO REGIONAL WEATHER ROUNDUP
NATIONAL WEATHER SERVICE CLEVELAND, OH
1000 PM EDT WED AUG 16 2017

NOTE: "FAIR" INDICATES FEW OR NO CLOUDS BELOW 12,000 FEET WITH NO
SIGNIFICANT WEATHER AND/OR OBSTRUCTIONS TO VISIBILITY.

OHZ001>008-015>018-024>027-034-035-043-044-170300-
   NORTHWEST OHIO

CITY           SKY/WX    TMP DP  RH WIND       PRES   REMARKS
DEFIANCE       CLOUDY    76  66  71 E9        29.97S
FINDLAY        CLEAR     77  63  61 E8        29.99R
TOLEDO EXPRESS CLEAR     73  62  68 E6        29.99S
TOLEDO EXEC    CLEAR     71  62  73 E7        30.01R
LIMA           CLEAR     71  69  93 SE5       29.99R
$$

OHZ009>014-019>023-028>033-038-089-170300-
   NORTHEAST OHIO

CITY           SKY/WX    TMP DP  RH WIND       PRES   REMARKS
CLE-HOPKINS    MOCLDY    78  57  48 E8        30.05R
CLE-LAKEFRONT  MOCLDY    76  55  48 E5        30.03R
CUY CO. ARPT   NOT AVBL
LORAIN-ELYRIA  PTCLDY    68  56  65 E5        30.04R
ASHTABULA      CLEAR     61  60  97 CALM      30.07R
AKRON-CANTON   PTCLDY    75  60  59 E7        30.05R
WOOSTER        CLEAR     69  64  84 E3        30.05R
MANSFIELD      CLEAR     73  66  78 CALM      30.04R
YOUNGSTOWN     PTCLDY    68  57  68 E5        30.06R
$$

OHZ042-051>053-060>062-070>072-077>081-170300-
  SOUTHWEST OHIO

CITY           SKY/WX    TMP DP  RH WIND       PRES   REMARKS
CINC-COVINGTON CLOUDY    81  74  79 S3        30.00R
CINC-LUNKEN    CLOUDY    79  74  84 CALM      29.99R
HAMILTON       PTCLDY    77  73  87 E5        30.00R
DAYTON         MOCLDY    79  68  69 SE8       30.01R
WRIGHT-PAT AFB NOT AVBL
DAYTON GENERAL PTCLDY    75  68  78 S10       30.01R
WILMINGTON     CLOUDY    76  72  87 S5        30.01R
$$

OHZ036-037-039>041-045>050-054>059-063>069-073>076-082>088-170300-
  CENTRAL AND SOUTHEAST OHIO

CITY           SKY/WX    TMP DP  RH WIND       PRES   REMARKS
COLUMBUS       PTCLDY    80  72  76 SE6       30.00R
OSU AIRPORT    CLEAR     77  71  82 E5        30.01R
BOLTON FIELD   CLEAR     73  71  95 CALM      30.01S
RICKENBACK AFB CLEAR     76  70  82 SE5       30.00R
NEWARK         CLEAR     75  70  84 CALM      30.01R
MARION         CLEAR     75  67  76 SE7       30.02R
LANCASTER      CLEAR     72  70  93 SE3       30.02R
ZANESVILLE     CLEAR     74  68  81 SE6       30.03R
NEW PHILLY     NOT AVBL
$$



USA.gov is the U.S. government's official web portal to all federal, state and local government web resources and services.